Voltar ao catálogo

FENGYUN 1C DEB

AtivoLEO
NORAD 36701·DEBRIS·🇨🇳 China

Lançado May 10, 1999 de Taiyuan Satellite Launch Center

Loading…

Próximas Passagens (próximas 24 horas)

TLE

EnvelhecendoSource: Space-Track

Época: Sep 11, 2026, 08:15 UTC

1 36701U 99025DZX 26254.34404768  .00001072  00000-0  98761-3 0  9991
2 36701 102.7536 302.6327 0255379 352.3376   7.3892 13.72554643648777

Acompanhe FENGYUN 1C DEB em tempo real com AllMySat

Download on the App Store